Lid_Strength_Index
0 -0 -0 -1 -1 -0 1 1 1 1 1 0 0 0 0 -0 -0 -0 -0 3 2 0 -1 -2 -2 -2 -2 -2 -2 -2 -2 -2 -2 -2 -2 -2 -2 -2 -2 -2 -1 -1 -1
0 0 1 0 0 -1 -1 0 0 1 1 1 1 1 1 0 1 1 0 1 2 0 -1 -2 -2 -2 -2 -2 -2 -2 -2 -2 -2 -2 -2 -2 -2 -2 -2 -2 -2 -2 -1
0 -0 -0 0 -0 -0 0 -0 1 1 1 0 0 -0 -0 -0 -0 -0 -0 0 1 2 1 -0 -1 -2 -2 -2 -2 -2 -2 -2 -2 -2 -2 -2 -2 -2 -2 -2 -2 -2 -2
0 -0 -0 -0 -0 0 1 0 0 0 1 1 0 0 0 0 0 0 1 0 -0 -0 1 1 0 -0 -1 -2 -2 -2 -2 -2 -2 -2 -2 -2 -2 -2 -2 -2 -2 -2 -2
1 0 -0 -1 -0 -0 0 0 0 1 1 1 1 1 1 1 1 0 1 1 0 0 0 1 2 1 0 -1 -1 -2 -2 -2 -2 -2 -1 -1 -1 -1 -2 -2 -2 -2 -2
0 0 0 -0 -1 -0 -0 -0 0 -0 0 0 1 1 0 -0 -0 -1 -0 0 -0 0 0 0 0 1 1 -0 -1 -2 -2 -2 -2 -1 -1 -2 -2 -1 -1 -1 -1 -2 -2
-1 -0 0 1 1 -0 0 -0 0 1 1 -0 1 1 1 0 0 -0 -1 -0 -0 -0 0 0 1 1 2 4 2 0 -1 -1 -1 -1 -1 -1 -1 -1 -1 -2 -2 -2 -1
3 1 1 1 1 0 0 0 0 1 1 0 2 2 4 2 1 1 -0 0 0 0 1 1 2 4 6 7 6 4 3 1 1 1 0 -0 -1 -1 -1 -2 -2 -2 -2
7 6 5 4 4 2 2 2 1 1 2 1 1 3 5 6 3 1 1 1 1 1 2 5 7 7 9 9 8 7 6 4 4 3 2 2 2 1 0 -0 -1 -1 -1
9 8 8 7 6 5 4 4 3 2 1 2 1 1 1 2 5 5 1 1 2 3 5 7 10 10 10 10 9 8 7 6 6 5 5 4 3 3 2 1 1 -0 -1
10 10 9 8 8 6 6 5 6 5 4 3 3 2 1 1 2 4 5 3 3 6 8 9 10 11 11 11 10 9 8 7 6 7 6 5 5 4 3 2 2 1 1
11 10 10 9 8 8 8 7 7 7 6 6 5 5 4 4 3 4 4 3 4 7 9 11 11 11 11 11 11 11 9 8 8 7 7 6 5 4 4 4 3 3 3
11 11 10 9 9 9 9 9 9 9 8 8 8 8 7 7 7 6 6 6 6 6 9 11 11 11 11 11 11 12 11 9 9 8 7 7 6 5 6 5 4 4 4
11 11 10 10 10 10 10 9 9 9 9 9 9 9 10 10 9 9 8 7 8 7 7 9 11 11 11 11 12 12 11 11 10 9 8 8 6 5 7 6 5 5 4
12 11 11 11 11 11 11 10 10 10 10 10 10 10 11 12 11 11 11 10 9 11 10 9 10 11 11 11 12 12 12 12 11 9 9 8 6 7 7 7 6 6 5
12 11 11 12 12 11 11 11 11 11 11 11 12 13 13 13 13 13 13 13 11 10 11 10 11 12 12 12 12 12 12 12 12 11 9 8 7 8 8 8 7 7 6
12 12 12 12 12 12 12 12 12 13 13 14 14 14 14 14 14 13 13 13 13 13 13 12 11 11 12 12 13 12 12 12 13 12 9 8 9 9 9 9 8 8 7
12 12 12 13 14 14 13 13 13 14 14 14 14 13 14 14 14 14 13 14 14 13 13 14 13 12 13 12 13 13 14 13 13 12 10 11 11 11 10 9 9 9 9
14 13 14 14 15 14 14 14 14 14 14 14 14 14 14 14 14 14 14 14 14 13 13 13 13 12 12 13 14 14 14 14 14 13 12 13 12 12 11 11 11 11 11
14 14 14 14 14 14 13 13 13 14 13 14 14 14 14 14 14 14 14 14 14 13 13 13 14 14 14 14 15 16 16 15 15 13 14 15 14 13 12 12 12 12 11
14 13 13 13 13 13 13 13 13 14 14 14 14 14 14 13 13 12 13 13 14 14 14 15 15 15 15 17 17 17 17 16 15 14 17 16 15 14 14 14 13 12 11
13 12 13 13 13 13 11 12 13 14 14 14 14 14 14 14 13 13 13 13 13 15 15 16 16 17 17 17 17 17 18 19 19 15 18 18 15 15 16 15 13 12 11
13 13 13 13 13 12 11 11 12 13 14 14 14 14 15 14 14 14 14 14 15 14 14 16 17 18 18 17 17 18 19 19 20 18 18 18 15 18 16 16 15 13 12
14 13 13 13 13 12 11 11 12 13 14 14 14 14 15 15 14 14 15 15 15 15 15 16 17 17 17 16 17 18 20 20 20 18 18 20 18 18 18 17 15 14 14
14 14 13 13 13 12 11 11 13 14 15 15 15 15 15 15 14 14 16 16 17 16 15 16 17 17 17 17 17 19 21 23 22 21 18 21 19 20 19 18 15 15 15
14 13 13 13 13 12 11 11 13 14 15 15 15 15 14 15 14 15 16 17 17 17 17 18 19 19 19 19 19 20 20 23 23 23 19 21 21 21 22 18 17 17 17